Weather History for Jonesville, VA

Change the Weather History Date:

Tuesday, November 20, 2012

  Actual Average (KLOZ) Record (KLOZ)
Temperature  
Mean Temperature 48 °F 46 °F  
Max Temperature 62 °F 57 °F 73 °F (1994)
Min Temperature 33 °F 36 °F 20 °F (1969)
Degree Days  
Heating Degree Days 18 19  
Month to date heating degree days 317  
Since 1 July heating degree days 623  
Cooling Degree Days 0 0  
Month to date cooling degree days 0  
Year to date cooling degree days 1188  
Moisture  
Dew Point 35 °F    
Average Humidity 64    
Maximum Humidity 100    
Minimum Humidity 32    
Precipitation  
Precipitation 0.00 in 0.14 in 1.69 in (1988)
Month to date precipitation 2.42  
Year to date precipitation 41.49  
Sea Level Pressure  
Sea Level Pressure 30.15 in    
Wind  
Wind Speed 1 mph (WSW)    
Max Wind Speed 6 mph    
Max Gust Speed -    
Visibility 10 miles    
Events      
T = Trace of Precipitation, MM = Missing Value Source: NWS Daily Summary

Daily Weather History Graph

Daily Weather History Graph

Search for Another Location

Airport:

Trip Planner

Search our weather history database for the weather conditions in past years. The results will help you decide how hot, cold, wet, or windy it might be!

Date:

Astronomy

Nov. 20, 2012 Rise Set
Actual Time 7:16 AM EST 5:20 PM EST
Civil Twilight 6:48 AM EST 5:48 PM EST
Nautical Twilight 6:16 AM EST 6:20 PM EST
Astronomical Twilight 5:46 AM EST 6:50 PM EST
Moon 12:55 PM EST (11/20) No Moon Set
Length of Visible Light 11h 00m
Length of Day
10h 04m
Waxing Crescent, 51% of the Moon is Illuminated
Nov 20
Waxing Crescent
Nov 28
Full
Dec 6
Last Quarter
Dec 13
New
Dec 20
First Quarter

Hourly Weather History & Observations

Time (EST) Temp. Windchill Dew Point Humidity Pressure Visibility Wind Dir Wind Speed Gust Speed Precip Events Conditions
12:15 AM 35.6 °F - 33.8 °F 93% 30.23 in 10.0 mi Calm Calm - N/A   Unknown
12:35 AM 33.8 °F - 32.0 °F 93% 30.22 in 10.0 mi Calm Calm - N/A   Unknown
12:55 AM 33.8 °F - 32.0 °F 93% 30.21 in 10.0 mi Calm Calm - N/A   Unknown
1:15 AM 33.8 °F - 33.8 °F 100% 30.21 in 10.0 mi Calm Calm - N/A   Unknown
1:35 AM 35.6 °F - 33.8 °F 93% 30.21 in 10.0 mi Calm Calm - N/A   Unknown
1:55 AM 35.6 °F - 33.8 °F 93% 30.21 in 10.0 mi Calm Calm - N/A   Unknown
2:15 AM 33.8 °F - 32.0 °F 93% 30.20 in 10.0 mi Calm Calm - N/A   Unknown
2:55 AM 33.8 °F - 33.8 °F 100% 30.20 in 10.0 mi Calm Calm - N/A   Unknown
3:15 AM 35.6 °F - 33.8 °F 93% 30.20 in 10.0 mi Calm Calm - N/A   Unknown
7:15 AM 35.6 °F - 35.6 °F 100% 30.20 in 10.0 mi Calm Calm - N/A   Unknown
7:55 AM 37.4 °F - 35.6 °F 93% 30.20 in 10.0 mi Calm Calm - N/A   Mostly Cloudy
8:15 AM 37.4 °F - 35.6 °F 93% 30.21 in 10.0 mi Calm Calm - N/A   Partly Cloudy
8:35 AM 37.4 °F - 35.6 °F 93% 30.22 in 10.0 mi Calm Calm - N/A   Clear
8:55 AM 39.2 °F - 37.4 °F 93% 30.21 in 10.0 mi Calm Calm - N/A   Clear
9:15 AM 39.2 °F - 37.4 °F 93% 30.22 in 10.0 mi Calm Calm - N/A   Clear
9:35 AM 41.0 °F - 37.4 °F 87% 30.22 in 10.0 mi Calm Calm - N/A   Partly Cloudy
9:55 AM 44.6 °F - 37.4 °F 76% 30.22 in 10.0 mi Calm Calm - N/A   Clear
10:15 AM 46.4 °F - 37.4 °F 71% 30.21 in 10.0 mi Calm Calm - N/A   Partly Cloudy
10:35 AM 48.2 °F - 39.2 °F 71% 30.21 in 10.0 mi Calm Calm - N/A   Clear
10:55 AM 50.0 °F - 37.4 °F 62% 30.20 in 10.0 mi Calm Calm - N/A   Clear
11:15 AM 53.6 °F - 37.4 °F 54% 30.20 in 10.0 mi Calm Calm - N/A   Clear
11:35 AM 55.4 °F - 35.6 °F 47% 30.18 in 10.0 mi Calm Calm - N/A   Clear
11:55 AM 57.2 °F - 35.6 °F 44% 30.17 in 10.0 mi WSW 3.5 mph - N/A   Clear
12:15 PM 59.0 °F - 32.0 °F 36% 30.16 in 10.0 mi West 3.5 mph - N/A   Clear
12:35 PM 59.0 °F - 32.0 °F 36% 30.15 in 10.0 mi SW 5.8 mph - N/A   Clear
12:55 PM 59.0 °F - 32.0 °F 36% 30.13 in 10.0 mi SW 5.8 mph - N/A   Clear
1:15 PM 60.8 °F - 32.0 °F 34% 30.13 in 10.0 mi Calm Calm - N/A   Clear
1:35 PM 62.6 °F - 32.0 °F 32% 30.12 in 10.0 mi SW 5.8 mph - N/A   Clear
1:55 PM 62.6 °F - 32.0 °F 32% 30.11 in 10.0 mi South 4.6 mph - N/A   Clear
2:15 PM 62.6 °F - 32.0 °F 32% 30.11 in 10.0 mi WSW 5.8 mph - N/A   Clear
2:35 PM 62.6 °F - 32.0 °F 32% 30.10 in 10.0 mi SW 5.8 mph - N/A   Clear
2:55 PM 62.6 °F - 32.0 °F 32% 30.10 in 10.0 mi WSW 5.8 mph - N/A   Clear
3:15 PM 62.6 °F - 32.0 °F 32% 30.09 in 10.0 mi Calm Calm - N/A   Clear
3:35 PM 62.6 °F - 32.0 °F 32% 30.09 in 10.0 mi SW 3.5 mph - N/A   Clear
3:55 PM 62.6 °F - 32.0 °F 32% 30.09 in 10.0 mi West 3.5 mph - N/A   Clear
4:15 PM 62.6 °F - 32.0 °F 32% 30.09 in 10.0 mi Calm Calm - N/A   Clear
4:35 PM 62.6 °F - 32.0 °F 32% 30.09 in 10.0 mi SW 5.8 mph - N/A   Clear
4:55 PM 59.0 °F - 33.8 °F 39% 30.09 in 10.0 mi WSW 3.5 mph - N/A   Clear
5:15 PM 57.2 °F - 33.8 °F 41% 30.09 in 10.0 mi WSW 3.5 mph - N/A   Unknown
5:35 PM 53.6 °F - 35.6 °F 51% 30.10 in 10.0 mi Calm Calm - N/A   Unknown
5:55 PM 51.8 °F - 35.6 °F 54% 30.10 in 10.0 mi Calm Calm - N/A   Unknown
6:15 PM 50.0 °F - 35.6 °F 58% 30.11 in 10.0 mi Calm Calm - N/A   Unknown
6:35 PM 48.2 °F - 35.6 °F 62% 30.11 in 10.0 mi Calm Calm - N/A   Unknown
6:55 PM 48.2 °F - 35.6 °F 62% 30.12 in 10.0 mi Calm Calm - N/A   Unknown
7:15 PM 48.2 °F - 37.4 °F 66% 30.12 in 10.0 mi Calm Calm - N/A   Overcast
7:35 PM 48.2 °F - 35.6 °F 62% 30.13 in 10.0 mi Calm Calm - N/A   Overcast
7:55 PM 48.2 °F - 37.4 °F 66% 30.13 in 10.0 mi Calm Calm - N/A   Overcast
8:15 PM 48.2 °F - 37.4 °F 66% 30.13 in 10.0 mi Calm Calm - N/A   Overcast
8:35 PM 48.2 °F - 37.4 °F 66% 30.13 in 10.0 mi Calm Calm - N/A   Overcast
8:55 PM 48.2 °F - 39.2 °F 71% 30.13 in 10.0 mi Calm Calm - N/A   Overcast
9:15 PM 48.2 °F - 37.4 °F 66% 30.13 in 10.0 mi Calm Calm - N/A   Unknown
9:55 PM 48.2 °F - 39.2 °F 71% 30.14 in 10.0 mi Calm Calm - N/A   Overcast
10:15 PM 48.2 °F - 37.4 °F 66% 30.14 in 10.0 mi Calm Calm - N/A   Unknown
10:35 PM 48.2 °F - 39.2 °F 71% 30.15 in 10.0 mi Calm Calm - N/A   Unknown
10:55 PM 46.4 °F - 39.2 °F 76% 30.15 in 10.0 mi Calm Calm - N/A   Unknown
11:15 PM 46.4 °F 45.2 °F 39.2 °F 76% 30.15 in 10.0 mi North 3.5 mph - N/A   Unknown
11:35 PM 46.4 °F - 39.2 °F 76% 30.15 in 10.0 mi Calm Calm - N/A   Unknown
11:55 PM 46.4 °F - 39.2 °F 76% 30.15 in 10.0 mi Calm Calm - N/A   Unknown